Location: Recife
(8.0585°S, 34.8848°W)
Time: 12:21:50
(UTC-03:00)

Vanguard 2 - Pass Details

Date: 14 April 2026
Orbit: 553 x 2895 km, 32.9° (Epoch: 13 May)

Event Time Altitude Azimuth Distance (km) Brightness Sun altitude
Rises 21:04:19 0° 292° (WNW) 5,334 12.3 -56.5°
Reaches altitude 10° 21:07:26 10° 289° (WNW) 4,603 11.8 -57.3°
Enters shadow 21:15:19 43° 269° (W) 3,198 10.6 -59.2°
